Location: Unspecified
(0.0000°N, 0.0000°E)
Time: 09:56:58
(UTC+00:00)

A-11 Canister half - Pass Details

Date: 08 August 2021
Orbit: 1515 x 1685 km, 47.2° (Epoch: 27 September)

Event Time Altitude Azimuth Distance (km) Brightness Sun altitude
Rises 11:51:03 0° 221° (SW) 4,655 11.4 73.6°
Reaches altitude 10° 11:54:03 10° 221° (SW) 3,674 11.0 73.8°
Maximum altitude 12:03:19 87° 308° (NW) 1,534 11.1 74.0°
Drops below altitude 10° 12:12:47 10° 38° (NE) 3,745 11.4 73.9°
Sets 12:15:53 0° 39° (NE) 4,749 11.7 73.8°
